Theta_e
295 296 296 297 297 297 297 296 297 297 297 298 298 298 300 300 304 305 307 306 308 308 308 308 310 310 310 314 322 323 322 327 326 329 330 330 329 329 328 327 325 324 323 324
296 296 296 296 296 296 297 296 296 296 296 295 296 296 298 299 300 301 303 305 306 307 308 308 309 309 310 313 312 319 317 318 325 325 327 327 327 327 326 325 325 324 323 322
296 296 296 296 296 296 296 296 296 295 295 295 295 295 296 297 298 299 300 302 303 307 308 308 309 310 309 310 310 310 313 312 314 316 322 324 325 325 325 324 324 323 323 322
296 296 297 297 298 298 299 297 296 296 296 296 296 296 297 297 297 298 299 301 303 304 305 308 308 309 309 309 310 312 319 320 319 319 318 322 322 323 324 324 323 323 322 321
296 296 297 297 297 297 298 298 298 297 295 295 295 296 296 297 297 297 298 299 302 304 304 306 307 308 310 310 309 309 312 321 323 320 317 319 321 321 322 323 322 323 322 320
297 297 297 298 298 298 298 299 298 296 296 296 295 295 295 295 297 297 298 300 301 304 304 305 307 307 307 308 308 309 311 318 319 316 316 315 318 320 320 321 321 321 321 320
295 296 296 297 296 295 296 296 297 297 296 294 296 297 296 297 297 298 298 299 302 305 305 305 306 306 307 308 308 308 308 311 313 313 311 311 312 318 319 320 320 320 319 319
294 293 295 295 295 298 296 298 298 297 297 298 298 299 298 298 297 298 299 301 303 305 304 304 305 306 308 308 308 307 307 309 311 312 311 311 312 314 315 317 317 318 318 319
294 293 294 294 295 296 298 298 298 299 297 298 296 297 298 295 293 295 297 297 296 298 297 298 300 302 305 306 307 307 308 309 312 311 311 311 313 314 315 316 317 317 316 316
292 292 294 295 294 297 297 298 294 295 300 293 295 298 295 292 291 292 294 295 294 293 294 295 295 297 301 302 303 304 305 306 307 309 311 312 314 314 313 315 317 316 315 313
292 293 292 292 290 294 295 294 295 295 294 299 299 296 292 292 291 290 291 292 292 291 291 291 291 292 295 297 298 300 301 303 305 306 309 312 311 312 312 314 311 314 315 314
292 292 291 291 292 296 295 294 293 294 294 296 301 293 291 290 289 289 289 290 290 289 289 290 291 291 292 292 294 297 299 300 301 302 305 310 312 312 312 312 312 312 314 313
293 293 292 290 294 294 293 295 292 292 293 293 299 294 291 290 289 288 288 288 288 288 287 289 290 290 291 291 292 293 295 298 299 300 301 304 309 310 310 311 311 312 311 311
294 291 293 294 292 293 294 294 291 290 295 293 292 290 289 289 288 288 287 287 286 286 286 287 289 289 290 291 292 292 293 293 296 298 299 300 301 305 305 306 307 307 308 308
294 292 291 290 291 292 293 293 291 290 289 292 290 289 288 289 287 287 286 286 285 285 284 285 287 287 289 291 291 293 293 293 293 294 296 297 299 301 301 302 302 303 304 304
291 293 291 290 289 295 296 292 292 289 288 289 291 290 287 289 286 285 285 285 284 283 283 284 285 286 287 289 290 291 292 293 294 293 294 295 295 297 298 299 300 301 301 301
293 294 290 287 292 294 295 290 290 290 288 288 288 288 287 287 286 284 284 284 283 282 283 283 283 284 286 287 288 289 290 291 293 294 295 295 296 296 296 296 297 298 299 300
295 294 292 290 292 296 293 291 291 290 288 287 287 286 286 286 285 283 283 283 282 282 282 283 283 284 285 286 287 288 289 290 289 291 292 293 293 294 295 296 297 297 298 299
292 293 293 291 289 294 294 291 290 289 288 286 286 285 285 286 288 285 283 282 282 282 282 283 284 284 285 286 286 287 288 289 289 289 290 290 290 292 292 293 294 294 295 295
290 290 292 290 293 293 289 288 290 288 290 285 284 283 283 286 285 282 282 282 282 282 282 283 283 284 285 285 285 286 287 287 288 287 288 288 289 289 290 290 291 292 292 292
284 288 290 292 293 292 288 288 289 292 287 284 285 285 284 283 283 283 282 282 281 281 282 283 284 283 284 285 285 285 285 286 285 286 286 287 288 288 289 289 289 290 290 291
288 287 291 286 291 293 288 289 289 284 285 285 285 284 283 284 283 282 282 281 280 280 281 281 282 283 283 284 284 284 285 284 285 285 285 286 286 287 287 288 288 289 289 289
290 290 290 293 290 287 287 286 285 284 284 285 284 284 283 283 282 281 281 280 280 280 280 281 281 280 281 282 282 284 284 284 284 284 285 285 285 285 286 286 286 286 287 288
291 290 290 288 290 287 287 286 285 284 284 284 283 283 282 281 281 281 280 280 280 280 280 280 280 281 281 281 280 281 281 283 284 284 284 284 284 284 285 285 285 285 285 285
290 290 290 290 290 288 287 287 286 285 284 284 284 282 281 281 280 280 280 280 280 280 280 280 280 280 280 280 280 280 280 281 281 283 283 283 283 283 284 284 284 284 284 284
289 289 290 291 291 289 289 287 286 285 284 284 283 281 280 280 280 280 280 280 280 281 281 281 281 280 280 280 280 280 280 280 280 281 282 283 283 283 283 283 283 283 284 284
Wind_Speed
20 13 15 17 20 23 24 24 24 20 24 23 23 23 22 27 24 30 35 34 36 36 39 52 40 30 38 37 33 33 30 40 40 43 43 44 43 42 39 40 39 36 35 33
11 15 21 20 21 21 22 24 23 20 19 20 21 23 21 25 21 22 26 29 43 44 39 32 48 50 33 40 37 37 35 32 44 43 39 42 46 44 41 42 41 38 36 35
12 18 21 20 21 21 22 21 22 22 22 22 21 24 21 22 21 29 32 31 34 33 31 36 29 42 45 44 45 44 43 40 37 38 42 41 43 45 45 45 43 41 40 39
11 12 14 15 17 17 21 19 22 23 18 15 11 16 17 18 22 21 20 29 30 35 30 27 21 35 39 37 38 39 39 39 39 38 39 43 44 47 51 49 47 46 45 43
15 20 23 18 14 14 13 15 17 16 14 13 19 9 15 16 21 17 20 31 32 34 39 33 30 20 25 29 31 33 33 37 40 38 38 41 45 47 45 48 48 48 46 44
18 25 12 12 14 13 17 15 14 11 8 13 18 11 16 17 22 16 19 29 37 36 41 38 32 29 26 23 22 25 28 36 39 34 37 40 43 45 45 45 46 49 48 46
20 6 8 5 8 15 6 7 3 4 6 10 10 12 19 11 20 20 21 24 30 39 41 37 34 34 30 23 20 23 27 35 37 35 33 38 42 44 44 46 46 45 48 50
8 20 6 15 14 6 16 4 3 5 3 8 9 6 4 11 15 21 12 13 25 15 13 15 10 20 25 23 25 24 26 28 32 37 36 38 38 42 43 42 41 43 44 45
7 12 23 19 9 5 6 8 13 7 17 8 5 7 4 19 20 19 15 23 24 25 25 19 12 11 17 17 18 24 24 25 25 29 33 34 35 39 42 41 42 42 42 42
5 19 7 10 11 6 6 6 7 4 5 3 4 0 7 16 15 15 14 14 16 19 21 15 10 6 2 7 13 18 23 24 27 28 28 31 34 37 38 40 40 42 43 41
15 7 11 8 4 11 5 6 5 7 4 3 3 3 8 10 10 11 11 14 16 20 21 17 13 11 6 6 8 12 16 20 25 27 28 28 31 34 35 37 39 42 40 41
7 4 8 18 22 5 3 4 6 4 5 5 4 3 4 9 9 11 10 16 15 15 16 16 16 15 11 8 7 7 11 14 18 23 28 27 26 29 31 34 36 37 40 38
3 3 8 8 4 3 5 6 10 12 7 6 4 3 9 10 11 15 12 18 19 19 19 17 17 15 13 11 10 7 4 7 12 16 22 29 25 26 28 30 31 35 37 38
5 3 6 11 14 15 12 11 13 10 3 7 6 4 10 10 13 13 20 22 22 23 22 18 18 16 14 14 13 13 11 6 4 6 12 20 25 22 24 25 27 30 34 37
3 5 6 12 16 17 9 4 10 9 9 6 3 4 10 7 11 9 13 14 16 19 23 23 20 18 16 15 16 14 14 13 9 5 1 7 13 16 19 21 23 25 28 31
4 5 5 10 7 3 4 8 4 3 9 6 9 1 10 8 13 14 18 21 23 24 24 24 20 19 18 16 16 16 15 14 12 11 7 2 4 10 14 17 19 21 24 26
6 3 3 5 3 9 4 3 3 1 3 4 5 6 9 5 8 13 20 22 21 23 26 26 24 21 19 18 17 16 15 14 13 12 10 6 3 3 6 10 13 18 21 23
5 6 2 5 8 1 3 2 3 1 3 4 3 6 8 8 11 20 24 21 23 25 25 24 23 21 20 17 16 15 13 13 13 13 12 10 8 5 2 6 10 13 17 19
5 3 3 2 3 2 3 3 3 3 2 5 6 10 8 19 11 8 27 23 22 21 20 19 19 19 18 18 16 15 14 13 12 12 11 10 10 9 6 3 3 7 10 13
2 4 2 3 2 2 3 2 3 2 2 4 4 5 8 16 3 3 23 21 20 19 20 19 18 17 16 17 16 16 16 14 14 13 11 9 6 5 5 4 2 1 3 6
4 3 4 4 2 1 3 4 1 1 3 0 4 5 8 3 3 12 16 18 17 18 19 18 19 21 21 18 16 16 15 16 15 12 10 8 6 4 3 2 2 2 3 5
3 0 2 2 3 3 1 2 1 3 2 0 3 5 6 6 8 10 11 13 16 18 19 19 19 20 19 18 17 17 16 15 13 12 11 9 7 5 4 3 3 5 5 7
3 4 2 2 4 3 3 3 4 4 4 1 1 3 4 5 7 8 10 12 14 18 20 21 21 20 19 19 18 17 17 15 13 12 11 10 9 7 5 4 3 4 5 8
3 3 2 3 2 3 8 6 5 4 5 3 2 2 3 5 6 7 10 13 15 17 20 20 20 20 20 19 18 16 15 15 13 12 11 10 9 7 6 4 3 3 4 6
5 5 5 5 8 1 9 12 9 6 6 5 3 4 4 5 3 5 7 10 13 16 18 20 21 21 20 18 17 17 16 14 13 12 10 9 9 7 6 5 4 3 3 4
6 6 5 4 5 2 3 14 14 10 9 8 8 6 5 4 3 4 6 10 13 16 19 20 21 22 22 21 19 17 16 15 13 11 11 9 8 7 6 5 4 4 4 4
Wind_Direction
298 290 270 264 257 248 258 269 280 293 289 285 276 281 273 256 247 242 245 252 261 257 252 238 233 239 226 221 220 226 219 215 212 206 214 218 220 220 218 221 223 223 225 227
301 266 271 282 289 290 286 276 276 265 271 275 279 274 274 284 285 288 276 251 234 245 249 251 226 229 233 218 223 223 225 217 216 224 225 230 226 222 227 225 224 225 227 229
293 275 294 285 277 274 273 267 268 269 277 275 282 279 272 266 267 268 270 274 267 245 246 243 236 223 229 227 224 230 227 228 226 224 223 227 229 223 222 224 225 226 227 228
275 261 288 293 282 275 275 265 269 270 274 271 279 284 281 268 260 254 260 258 260 256 264 242 240 224 221 222 225 226 215 222 224 222 219 218 219 222 224 225 224 225 226 226
283 300 294 287 270 298 286 293 264 266 262 274 258 257 265 256 258 251 240 249 253 245 245 248 243 247 225 226 233 229 222 216 220 221 224 219 219 224 228 228 227 228 229 230
268 280 275 256 276 289 277 282 271 266 269 252 251 226 259 242 242 245 247 239 240 244 233 236 241 246 245 237 226 227 217 214 224 224 228 226 222 219 220 227 228 228 227 229
316 288 297 280 305 298 271 292 257 223 215 249 247 220 237 254 239 238 233 237 244 232 228 227 225 233 240 227 215 217 233 222 222 224 220 226 226 221 223 227 229 230 229 228
343 319 355 323 308 313 306 237 278 281 253 291 313 256 269 10 338 257 271 347 20 258 164 161 163 168 179 200 213 215 222 222 224 226 226 222 226 223 222 226 231 235 237 236
317 292 313 297 341 341 339 324 304 269 248 262 238 277 127 12 20 6 9 36 16 17 42 63 93 121 147 157 170 197 210 213 224 235 234 232 229 225 222 222 228 235 240 243
304 298 292 344 318 169 292 325 327 331 296 268 269 305 341 356 356 358 12 31 10 4 20 25 21 14 135 215 214 211 214 216 217 220 228 235 231 232 230 224 221 231 238 244
294 251 291 324 300 322 353 1 331 278 231 270 308 67 356 357 359 356 5 16 17 20 26 21 10 2 342 285 257 241 233 227 224 224 222 225 233 234 232 229 229 229 235 239
278 280 284 283 279 157 93 9 322 289 318 312 283 58 16 16 1 3 4 9 22 28 30 34 30 21 7 340 311 280 259 247 236 227 222 220 224 229 231 232 229 228 232 239
297 245 304 317 5 339 20 354 326 293 223 245 285 85 359 7 5 12 7 13 22 27 31 42 44 39 31 24 20 8 318 274 256 241 227 221 220 224 228 231 230 227 229 236
320 281 269 289 287 304 299 328 359 348 2 325 19 46 5 15 10 6 8 10 18 24 28 39 48 41 39 36 38 38 34 17 334 265 234 225 221 223 227 231 232 231 232 235
271 268 267 273 274 285 279 346 14 6 344 36 34 46 351 28 16 2 7 15 21 21 21 28 39 35 36 37 38 43 42 39 36 25 293 228 227 229 228 226 229 232 234 236
297 280 317 297 258 274 255 30 354 16 357 5 351 41 355 344 25 18 15 15 16 15 18 27 36 35 32 34 35 37 41 43 43 44 41 2 257 234 232 234 233 231 232 234
259 288 317 270 313 315 143 358 341 118 44 313 3 330 327 345 39 22 10 14 14 12 19 25 29 31 28 29 30 34 34 36 42 44 42 39 21 275 251 239 238 237 235 235
295 292 225 282 316 74 123 107 312 110 64 16 321 338 327 318 119 53 27 14 12 16 21 23 25 27 28 29 32 29 31 34 35 36 36 32 33 28 305 238 239 239 239 237
194 271 285 281 274 194 128 19 347 5 58 10 342 344 341 339 176 53 14 15 16 19 24 23 25 25 28 32 30 27 31 30 29 34 32 26 22 21 24 9 271 247 244 240
234 209 222 311 265 294 221 273 203 200 211 13 349 346 345 357 43 315 358 8 17 20 23 23 29 30 32 32 30 25 28 27 31 26 22 17 14 13 10 8 4 322 247 241
298 266 223 276 294 265 224 274 252 263 252 56 332 27 7 23 4 328 0 9 16 21 23 28 33 31 29 25 24 26 25 28 24 18 14 9 1 346 331 307 274 231 195 200
223 289 281 325 252 302 258 279 154 196 176 6 7 30 19 13 17 15 9 11 19 29 31 32 32 32 29 28 27 24 20 17 12 9 6 4 2 353 331 296 258 235 216 214
279 198 221 218 248 163 176 182 178 189 169 157 5 21 36 38 32 27 28 32 28 31 32 30 27 26 24 21 19 19 16 10 6 4 3 1 358 351 341 313 281 245 222 219
255 119 219 40 302 198 193 198 202 189 164 196 191 102 71 62 40 49 40 38 35 30 26 23 22 21 19 15 11 7 1 359 359 1 358 356 352 348 343 324 293 260 235 231
241 170 214 256 268 131 230 218 210 202 183 169 162 144 123 118 83 72 47 34 27 23 18 10 6 4 360 359 357 355 351 347 346 345 348 352 347 342 333 324 308 284 255 234
198 217 198 230 228 180 178 198 202 191 185 182 172 162 148 141 112 61 39 24 17 12 7 2 357 349 342 338 335 334 337 337 334 330 328 338 337 330 326 323 327 308 279 243